Regional Weather Roundup
Issued by NWS

Home | Current Version | Previous Version | Text Only | Print | Product List | Glossary On
Versions: 1 2 3 4 5 6 7 8 9 10 11 12 13 14 15 16 17 18 19 20 21 22 23 24 25 26 27 28 29 30 31 32 33 34 35 36 37 38 39 40 41 42 43 44 45 46 47 48 49 50
985
ASUS43 KMPX 270701
RWRMN
WEATHER ROUNDUP FOR MINNESOTA
NATIONAL WEATHER SERVICE TWIN CITIES/CHANHASSEN MN
200 AM CDT THU APR 27 2017


NOTE: "FAIR" INDICATES FEW OR NO CLOUDS BELOW 12,000 FEET WITH NO
SIGNIFICANT WEATHER AND/OR OBSTRUCTIONS TO VISIBILITY. N/A MEANS
CURRENT SKY AND/OR WEATHER CONDITIONS ARE NOT AVAILABLE.

MNZ060>063-068>070-270800-
   Twin Cities Metro

CITY           SKY/WX    TMP DP  RH WIND       PRES   REMARKS
TWIN CITIES    CLOUDY    36  30  79 N8        29.56S
ST PAUL        CLOUDY    36  32  85 N10       29.57R
CRYSTAL        CLOUDY    34  29  82 N6        29.55S WCI  29
LAKEVILLE      DRIZZLE   34  34 100 NW7       29.55S WCI  28
EDEN PRAIRIE   LGT SNOW  35  32  88 NW8       29.55S FOG     WCI  29
SOUTH ST PAUL  CLOUDY    36  32  85 N5        29.55S
LAKE ELMO      CLOUDY    34  32  93 N6        29.56S WCI  29
$$
MNZ001>005-007-008-013>017-022>024-027-028-270800-
   Northwest Minnesota

CITY           SKY/WX    TMP DP  RH WIND       PRES   REMARKS
BEMIDJI        FLURRIES  23  20  90 N7        29.64F WCI  15
HALLOCK        CLOUDY    28  27  93 NE6       29.77S WCI  22
ROSEAU         FLURRIES  27  21  80 NE12      29.73S WCI  16
WARROAD        LGT SNOW  27  21  80 NE22G29   29.74R VSB 3/4 WCI  12
THIEF RVR FALL FLURRIES  25  22  88 NE13      29.73R WCI  14
CROOKSTON      LGT SNOW  27  25  93 NE7       29.75S WCI  19
FOSSTON        FLURRIES  23  21  93 NE10      29.68F WCI  12
DETROIT LAKES  CLOUDY    28  25  86 CALM      29.64F
MOORHEAD       MOCLDY    27  25  93 N8        29.70F WCI  18
PARK RAPIDS    LGT SNOW  26  20  77 N12       29.61F WCI  16
MAHNOMEN       FLURRIES  26  23  91 N3        29.67S
$$
MNZ006-009>011-018-025>026-270800-
   North Central Minnesota

CITY           SKY/WX    TMP DP  RH WIND       PRES   REMARKS
BAUDETTE       FLURRIES  24  17  74 NE13G21   29.71S WCI  12
FLAG ISLAND    CLOUDY    27  19  74 NE21G26   29.74S WCI  13
INTL FALLS     CLOUDY    23  14  68 NE9G16    29.68F WCI  13
WASKISH        CLOUDY    25  19  80 NE12G17   29.68F WCI  14
BIG FORK       CLOUDY    23  18  80 NE7       29.64F WCI  15
LONGVILLE      CLOUDY    25  23  93 N5        29.62F WCI  19
GRAND RAPIDS   CLOUDY    23  19  85 NE7       29.63F WCI  15
CRANE LAKE     CLOUDY    21  16  79 N7        29.68F WCI  13
ORR            CLOUDY    21  16  79 CALM      29.62S
COOK           CLOUDY    21  18  86 NE6       29.63F WCI  14
WALKER         CLOUDY    24  20  84 N7        29.63F WCI  16
$$
MNZ012-019>021-037-270800-
   Northeast Minnesota

CITY           SKY/WX    TMP DP  RH WIND       PRES   REMARKS
DULUTH         FRZ DRZL  24  22  91 N9        29.56F WCI  14
ELY            CLOUDY    19  18  93 N6        29.60F WCI  11
HIBBING        CLOUDY    22  19  89 N7        29.60F WCI  13
EVELETH        CLOUDY    22  19  85 N8        29.61F WCI  13
DULUTH HARBOR  CLOUDY    28  25  86 N9        29.62F WCI  20
TWO HARBORS    CLOUDY    27  21  80 CALM      29.58S
SILVER BAY     CLOUDY    25  21  86 N5        29.57F WCI  19
GRAND MARAIS     N/A     24  19  81 N9G22     29.59F WCI  14
G MARAIS ARPRT CLOUDY    16  12  86 N5        29.54F WCI   9
$$
MNZ029>031-032-039>041-046>048-054>057-064-270800-
   West Central Minnesota

CITY           SKY/WX    TMP DP  RH WIND       PRES   REMARKS
FERGUS FALLS   CLOUDY    28  27  93 N9        29.65F WCI  20
WHEATON        CLOUDY    28  25  86 N15       29.68F WCI  17
MORRIS         CLOUDY    30  28  93 NW14      29.62S WCI  20
ALEXANDRIA     CLOUDY    29  26  89 N10       29.60F WCI  20
ELBOW LAKE     CLOUDY    30  28  94 NW10      29.63F WCI  21
WADENA         CLOUDY    27  25  93 N5        29.61F WCI  21
GLENWOOD       MOCLDY    28  27  93 N7        29.61R WCI  21
APPLETON       CLOUDY    30  28  93 NW13      29.63F WCI  20
BENSON         CLOUDY    34  28  80 N12       29.63S HAZE    WCI  25
ORTONVILLE     CLOUDY    28  25  86 NW12G17   29.64F WCI  18
MADISON        CLOUDY    32  30  93 N15G21    29.64F WCI  22
WILLMAR        CLOUDY    32  30  93 NW8       29.62S WCI  25
$$
MNZ033>034-036-042>043-049>051-058-059-270800-
   Central Minnesota

CITY           SKY/WX    TMP DP  RH WIND       PRES   REMARKS
ST CLOUD       CLOUDY    31  29  92 N9        29.57F WCI  23
SAUK CENTRE    CLOUDY    29  26  89 N7        29.60S WCI  22
PAYNESVILLE    CLOUDY    31  31 100 NW6       29.60S WCI  25
AITKIN         MIX PCPN  28  23  80 N8        29.58F WCI  20
PINE RIVER     CLOUDY    27  21  80 N6        29.64F WCI  20
BRAINERD       CLOUDY    28  26  92 N7        29.59F FOG     WCI  21
STAPLES        LGT SNOW  27  25  93 N7        29.60F WCI  19
LONG PRAIRIE   CLOUDY    28  27  93 CALM      29.60F
LITTLE FALLS   CLOUDY    30  27  86 CALM      29.59F
LITCHFIELD     CLOUDY    34  30  86 NW9       29.59F WCI  26
BUFFALO        CLOUDY    32  31  95 NW9       29.59S FOG     WCI  24
MAPLE LAKE     CLOUDY    33  32  98 NW8       29.58F FOG     WCI  25
HUTCHINSON     CLOUDY    33  32  96 NW9       29.60S WCI  25
$$
MNZ037-044-045-052-053-270800-
   East Central Minnesota

CITY           SKY/WX    TMP DP  RH WIND       PRES   REMARKS
PRINCETON      CLOUDY    34  30  86 NW7       29.57S WCI  28
MORA           FLURRIES  32  28  86 CALM      29.59F
CAMBRIDGE      CLOUDY    36  30  80 N6        29.55S
RUSH CITY      CLOUDY    32  29  90 N6        29.56F WCI  26
MOOSE LAKE     CLOUDY    28  25  86 N9        29.56F WCI  20
HINCKLEY       CLOUDY    32  30  93 N6        29.57F WCI  26
CLOQUET        CLOUDY    25  21  86 N5        29.58F WCI  19
MCGREGOR       CLOUDY    27  23  86 N7        29.60F WCI  19
$$
MNZ071>073-080-081-089-090-097-098-270800-
   Southwest Minnesota

CITY           SKY/WX    TMP DP  RH WIND       PRES   REMARKS
MONTEVIDEO     CLOUDY    30  30 100 N10G17    29.63S WCI  21
GRANITE FALLS  CLOUDY    32  30  93 NW15      29.65S WCI  22
CANBY          CLOUDY    31  28  90 W7G20     29.65S WCI  24
MARSHALL       CLOUDY    29  27  92 NW15      29.64R WCI  18
REDWOOD FALLS  CLOUDY    32  28  85 NW10      29.61S WCI  24
OLIVIA         CLOUDY    32  30  93 NW10      29.60S WCI  24
PIPESTONE      CLOUDY    28  23  80 N15G21    29.62S WCI  17
WINDOM         CLEAR     30  28  93 NW14      29.61F WCI  20
WORTHINGTON    CLOUDY    29  27  92 NW14      29.63S WCI  18
JACKSON        CLOUDY    30  28  93 NW14      29.60F WCI  20
TRACY          LGT SNOW  31  29  94 NW13G20   29.63S WCI  21
SLAYTON        CLOUDY    28  26  95 NW12G17   29.63R WCI  17
$$
MNZ065>067-074>077-082>085-091>093-270800-
   South Central Minnesota

CITY           SKY/WX    TMP DP  RH WIND       PRES   REMARKS
MANKATO        MIX PCPN  33  31  92 NW10      29.59S WCI  25
NEW ULM        CLOUDY    32  30  93 NW13      29.59F WCI  22
ST JAMES       CLOUDY    30  30 100 W16G22    29.60F FOG     WCI  19
FAIRMONT       CLOUDY    31  30  96 NW14      29.59F WCI  21
GLENCOE        CLOUDY    34  34 100 NW7       29.58S WCI  27
FARIBAULT      DRIZZLE   36  34  93 W7        29.56S
OWATONNA       CLOUDY    36  34  93 NW8       29.56S FOG
WASECA         CLOUDY    34  32  93 NW9       29.58S WCI  26
ALBERT LEA     CLOUDY    34  32  93 NW9       29.55F WCI  26
$$
MNZ078>079-086>088-094>096-270800-
   Southeast Minnesota

CITY           SKY/WX    TMP DP  RH WIND       PRES   REMARKS
ROCHESTER      LGT RAIN  34  34 100 N14       29.52F FOG     WCI  25
RED WING       CLOUDY    37  30  75 N8        29.53F
STANTON        CLOUDY    37  33  88 NW5       29.54F
DODGE CENTER   CLOUDY    34  34 100 NW8       29.54S WCI  27
WINONA         CLOUDY    37  36  93 NW9       29.51F
AUSTIN         CLOUDY    36  34  93 NW10      29.54S
PRESTON        CLOUDY    35  33  92 NW8       29.51F FOG     WCI  29
$$
ABBREVIATIONS USED IN REMARKS
   TC - TEMPERATURES IN CELSIUS
  WCI - WIND CHILL INDEX
   HX - HEAT INDEX
  VSB - VISIBILITY
$$




USA.gov is the U.S. government's official web portal to all federal, state and local government web resources and services.